[[{"header":{"parameterUnit":"m.s-1","parameterCategory":1,"la1":30.2991,"la2":30.254,"lo1":-89.0895,"lo2":-89.0444,"dy":0.0017,"dx":0.0017,"nx":28,"ny":28,"refTime":"2024-05-31T09:00:00:Z","depth":0,"parameterNumber":2,"parameterNumberName":"U-component_of_WINDS"},"data":[0,0,0,0,0,0,0,0,0,0,0,0,0,0,0,0,0,0,0,0,0,0,0,0,0,0,0,0,0,0,0,0,0,0,0,0,0,0,0,0,0,0,0,0,0,0,0,0,0,0,0,0,0,0,0,0,0,0,-1.9546,-1.955,0,-1.9881,-1.9885,-1.9888,-2.0018,-2.0017,-2.0016,-2.0015,-2.0369,-2.0379,-2.0389,0,0,0,0,0,0,0,0,0,0,0,0,0,-1.9024,-1.9033,-1.9546,-1.955,-1.9554,-1.988,-1.9885,-1.9889,-2.0019,-2.0017,-2.0016,-2.0015,-2.0365,-2.0377,-2.039,0,0,0,0,0,0,0,0,0,0,0,0,0,-1.9294,-1.9036,-1.9545,-1.9657,-1.9671,-1.9879,-1.9885,-1.9891,-2.0019,-2.0017,-2.0016,-2.0014,-2.0361,-2.0376,-2.0392,-2.0516,0,0,-2.0439,-2.0445,0,0,0,0,0,0,0,0,-1.9279,-1.9313,-1.9637,-1.965,-1.9665,-1.9906,-1.9831,-2.0101,-2.0019,-1.9887,-2.0015,-2.0014,-2.0217,-2.0244,-2.031,-2.0532,-2.0548,-2.044,-2.0449,-2.0456,-2.046,0,0,0,0,0,0,0,-1.926,-1.93,-1.9679,-1.9641,-1.9659,-1.9693,-1.973,-1.9882,-2.0056,-1.9898,-1.9909,-1.9946,-2.0224,-2.0295,-2.0319,-2.0553,-2.044,-2.0453,-2.0463,-2.0469,-2.089,-2.0891,0,0,0,0,0,0,-1.9221,-1.9283,-1.9668,-1.9689,-1.9464,-1.9704,-1.9745,-1.9831,-2.0055,-2.0087,-1.9947,-1.9951,-2.0269,-2.0301,-2.0332,-2.0491,-2.0456,-2.047,-2.0479,-2.0888,-2.089,-2.0892,0,0,0,0,0,0,-1.921,-1.9255,-1.9655,-1.9489,-1.9542,-1.9714,-1.9809,-1.9838,-1.9909,-2.0091,-2.0124,-1.9987,-2.0269,-2.0311,-2.0468,-2.0505,-2.0477,-2.0492,-2.0885,-2.0888,-2.0891,-2.0808,0,0,0,0,0,0,-1.9194,-1.925,-1.9297,-1.9489,-1.955,-1.9782,-1.9812,-1.9845,-1.9934,-1.9942,-2.0137,-2.0168,-2.0271,-2.0444,-2.0483,-2.0525,-2.0504,-2.0883,-2.0887,-2.089,-2.0809,-2.0808,-2.0808,0,0,0,0,0,-1.9175,-1.9264,-1.9299,-1.9345,-1.9614,-1.9784,-1.982,-1.9934,-1.9936,-1.9987,-2.0103,-2.0162,-2.0493,-2.0459,-2.0504,-2.0552,-2.0881,-2.0886,-2.089,-2.0809,-2.0808,-2.0808,0,0,0,0,0,0,-1.9078,-1.9292,-1.9333,-1.9486,-1.9615,-1.9805,-1.9873,-1.993,-2.0065,-2.0067,-2.0205,-2.0249,-2.0393,-2.0489,-2.0446,-2.0682,-2.0692,-2.0705,-2.0615,-2.0616,-2.0615,-2.059,-2.0516,0,0,0,0,0,-1.9073,-1.9191,-1.9373,-1.949,-1.9552,-1.97,-1.9779,-1.9855,-1.9996,-2.0053,-2.0181,-2.0318,-2.0453,-2.0539,-2.0674,-2.0822,-2.0866,-2.0877,-2.0876,-2.0875,-2.0885,-2.0968,-2.0974,-2.0906,-2.0906,-2.0906,0,0,-1.9068,-1.9198,-1.9266,-1.9474,-1.9583,-1.9703,-1.9746,-1.9874,-1.9965,-2.0074,-2.0228,-2.0326,-2.0488,-2.064,-2.0713,-2.0724,-2.0913,-2.088,-2.0878,-2.089,-2.0973,-2.0979,-2.0985,-2.0909,-2.0909,-2.0908,0,0,-1.9118,-1.9228,-1.9337,-1.9443,-1.9606,-1.9703,-1.9728,-1.9909,-1.9977,-2.0133,-2.0216,-2.0327,-2.0557,-2.0668,-2.0754,-2.0838,-2.0898,-2.0878,-2.0877,-2.0955,-2.0961,-2.0966,-2.0995,-2.1004,-2.0888,-2.0888,-2.0888,0,-1.9091,-1.9273,-1.9386,-1.9507,-1.9595,-1.9693,-1.9804,-1.9904,-2.0103,-2.0163,-2.017,-2.0457,-2.0573,-2.0751,-2.077,-2.0837,-2.0871,-2.0858,-2.095,-2.0957,-2.0964,-2.0993,-2.1004,-2.0884,-2.0885,-2.0885,-2.0886,0,-1.9231,-1.9355,-1.9424,-1.9608,-1.9704,-1.982,-1.9951,-2.0036,-2.0101,-2.0197,-2.0353,-2.0495,-2.0658,-2.0705,-2.0773,-2.0892,-2.0892,-2.0923,-2.0936,-2.0965,-2.0995,-2.1007,-2.088,-2.0881,-2.0882,-2.0883,0,0,-1.9235,-1.9474,-1.9498,-1.958,-1.9764,-1.9864,-1.9982,-2.0137,-2.0206,-2.0339,-2.0442,-2.0631,-2.0658,-2.0756,-2.0836,-2.0905,-2.096,-2.0928,-2.0933,-2.0928,-2.1097,-2.1073,-2.1085,-2.0999,-2.1001,-2.1003,-2.1084,0,-1.9309,-1.9522,-1.9625,-1.9794,-1.991,-2.0001,-2.0105,-2.0229,-2.032,-2.0434,-2.0536,-2.0667,-2.0694,-2.0753,-2.0825,-2.0938,-2.0996,-2.0934,-2.1098,-2.1102,-2.1055,-2.1101,-2.1078,-2.1147,-2.1096,-2.1098,-2.11,0,-1.9426,-1.9552,-1.973,-1.9895,-1.9948,-2.0039,-2.0187,-2.0293,-2.0435,-2.0497,-2.0601,-2.0678,-2.0807,-2.0807,-2.0986,-2.0941,-2.1014,-2.1079,-2.1084,-2.1106,-2.1104,-2.1124,-2.1172,-2.1182,-2.1119,-2.1118,-2.1116,0,-1.9409,-1.9624,-1.9758,-1.9826,-2.0023,-2.0083,-2.0169,-2.0309,-2.0393,-2.0523,-2.0579,-2.0723,-2.0803,-2.0913,-2.1026,-2.1016,-2.1193,-2.1204,-2.1249,-2.1246,-2.1285,-2.1281,-2.1345,-2.1329,-2.1329,-2.1329,-2.1328,0,-1.9482,-1.9588,-1.9752,-1.9835,-1.9955,-2.0072,-2.0189,-2.0281,-2.0404,-2.0507,-2.0596,-2.0691,-2.0834,-2.0947,-2.1036,-2.1169,-2.1205,-2.1259,-2.1282,-2.1252,-2.1245,-2.1303,-2.1302,-2.1332,-2.1331,-2.133,-2.133,0,-1.9486,-1.96,-1.9751,-1.9922,-1.9967,-2.0048,-2.0196,-2.028,-2.0372,-2.0501,-2.0538,-2.0686,-2.0823,-2.0945,-2.1129,-2.1188,-2.1324,-2.1353,-2.1275,-2.1288,-2.1325,-2.132,-2.1431,-2.1451,-2.1419,-2.1419,-2.1419,0,-1.9526,-1.9608,-1.9785,-1.9858,-1.994,-2.0057,-2.0142,-2.0259,-2.0344,-2.0508,-2.0572,-2.0714,-2.0835,-2.1049,-2.1174,-2.1313,-2.1346,-2.1375,-2.1368,-2.1334,-2.1346,-2.134,-2.1349,-2.1375,-2.1374,-2.1374,-2.1374,0,-1.9584,-1.9634,-1.9752,-1.9887,-1.9985,-2.0099,-2.0216,-2.0271,-2.041,-2.0501,-2.0639,-2.0731,-2.0914,-2.1055,-2.1206,-2.1297,-2.1359,-2.1374,-2.1392,-2.1363,-2.1315,-2.1341,-2.1273,-2.1372,-2.1372,-2.1373,-2.1373,-2.1373,-1.9608,-1.9684,-1.9818,-1.9945,-2.0043,-2.0149,-2.0234,-2.0335,-2.0451,-2.0607,-2.0669,-2.0809,-2.0946,-2.1155,-2.1244,-2.1356,-2.1368,-2.1394,-2.1401,-2.1406,-2.14,-2.1294,-2.1385,-2.1385,-2.1385,-2.1385,-2.1385,0,-1.967,-1.9759,-1.9874,-2.0031,-2.013,-2.0174,-2.0304,-2.0385,-2.0506,-2.0626,-2.074,-2.0897,-2.1032,-2.1164,-2.1306,-2.137,-2.1402,-2.1403,-2.1401,-2.142,-2.1382,-2.1352,-2.1375,-2.1375,-2.1375,-2.1375,-2.1375,-2.1375,-1.9714,-1.9844,-1.991,-2.0089,-2.0179,-2.0314,-2.0384,-2.0481,-2.0577,-2.0747,-2.0857,-2.0941,-2.1066,-2.1216,-2.1341,-2.1376,-2.1425,-2.1418,-2.1462,-2.1424,-2.1423,-2.1423,-2.1396,-2.1428,-2.1428,-2.1491,-2.1492,-2.1492]},{"header":{"parameterUnit":"m.s-1","parameterCategory":1,"la1":30.2991,"la2":30.254,"lo1":-89.0895,"lo2":-89.0444,"dy":0.0017,"dx":0.0017,"nx":28,"ny":28,"refTime":"2024-05-31T09:00:00:Z","depth":0,"parameterNumber":3,"parameterNumberName":"V-component_of_WINDS"},"data":[0,0,0,0,0,0,0,0,0,0,0,0,0,0,0,0,0,0,0,0,0,0,0,0,0,0,0,0,0,0,0,0,0,0,0,0,0,0,0,0,0,0,0,0,0,0,0,0,0,0,0,0,0,0,0,0,0,0,5.5265,5.5267,0,5.546,5.5463,5.5465,5.5441,5.5437,5.5434,5.5431,5.5637,5.5645,5.5653,0,0,0,0,0,0,0,0,0,0,0,0,0,5.4878,5.4885,5.5265,5.5268,5.527,5.546,5.5463,5.5465,5.5441,5.5437,5.5433,5.543,5.5634,5.5644,5.5654,0,0,0,0,0,0,0,0,0,0,0,0,0,5.5057,5.4888,5.5265,5.5281,5.5284,5.5459,5.5463,5.5466,5.5442,5.5437,5.5432,5.5428,5.5631,5.5643,5.5656,5.583,0,0,5.5694,5.57,0,0,0,0,0,0,0,0,5.5047,5.5071,5.5276,5.528,5.5284,5.5421,5.5402,5.5588,5.5443,5.5382,5.5431,5.5425,5.5569,5.5587,5.5634,5.5839,5.5848,5.5695,5.5703,5.5709,5.5712,0,0,0,0,0,0,0,5.5035,5.5063,5.5342,5.5279,5.5284,5.528,5.53,5.5437,5.55,5.5387,5.5386,5.5409,5.5571,5.5622,5.5639,5.5851,5.5695,5.5706,5.5714,5.5719,5.6211,5.6216,0,0,0,0,0,0,5.5017,5.5053,5.5336,5.5348,5.5151,5.5291,5.5314,5.5382,5.5499,5.5512,5.5413,5.5407,5.5603,5.5624,5.5646,5.5858,5.5709,5.572,5.5728,5.6205,5.6212,5.6218,0,0,0,0,0,0,5.5009,5.5043,5.5328,5.52,5.5236,5.5303,5.538,5.5388,5.5439,5.5518,5.553,5.5453,5.56,5.5628,5.5784,5.5865,5.5726,5.5738,5.6199,5.6207,5.6215,5.6283,0,0,0,0,0,0,5.4998,5.504,5.5105,5.5202,5.5243,5.5462,5.5385,5.5396,5.5461,5.5455,5.5559,5.5572,5.5598,5.5765,5.5797,5.588,5.5748,5.6192,5.6203,5.6212,5.6274,5.6293,5.6309,0,0,0,0,0,5.4984,5.5118,5.5108,5.5143,5.5326,5.5466,5.549,5.5516,5.5467,5.5534,5.5585,5.5568,5.5851,5.5781,5.5817,5.5905,5.6187,5.62,5.6212,5.6267,5.6289,5.6309,0,0,0,0,0,0,5.5031,5.5131,5.5122,5.529,5.5369,5.5462,5.5547,5.5539,5.5636,5.5627,5.5657,5.5681,5.5839,5.5887,5.5808,5.608,5.6013,5.6033,5.6042,5.6065,5.6082,5.6067,5.5758,0,0,0,0,0,5.506,5.5164,5.5246,5.5387,5.5427,5.548,5.5543,5.5556,5.564,5.5674,5.5736,5.5821,5.5929,5.6,5.6103,5.6281,5.6305,5.636,5.6377,5.6391,5.6408,5.6507,5.6533,5.6258,5.6258,5.6258,0,0,5.5123,5.519,5.5254,5.5398,5.5461,5.557,5.5509,5.5626,5.5708,5.5693,5.5844,5.5892,5.5989,5.6157,5.6234,5.6203,5.6489,5.6406,5.6417,5.6427,5.6523,5.6548,5.6572,5.6266,5.6265,5.6264,0,0,5.5292,5.5353,5.5477,5.5541,5.5637,5.5672,5.5702,5.5796,5.5827,5.5979,5.597,5.6069,5.6254,5.6323,5.6383,5.658,5.6569,5.6613,5.6704,5.68,5.6822,5.6841,5.6913,5.6938,5.6629,5.663,5.663,0,5.5358,5.552,5.5542,5.5661,5.5726,5.5715,5.5843,5.5905,5.6031,5.6077,5.6039,5.6271,5.6335,5.652,5.6568,5.6617,5.6653,5.6601,5.6816,5.6836,5.6855,5.6923,5.695,5.6634,5.6634,5.6633,5.6633,0,5.5597,5.5709,5.5799,5.5918,5.5993,5.6116,5.6159,5.6232,5.6239,5.6279,5.6434,5.6511,5.663,5.6675,5.6684,5.6862,5.684,5.6809,5.6742,5.6885,5.695,5.6977,5.6641,5.664,5.6638,5.6637,0,0,5.5801,5.5932,5.5964,5.6019,5.6125,5.6213,5.6336,5.6451,5.6514,5.6602,5.6707,5.6864,5.6837,5.6905,5.6921,5.7006,5.7159,5.6965,5.6968,5.6999,5.7362,5.7385,5.7414,5.7152,5.7157,5.7161,5.7354,0,5.5982,5.6197,5.6221,5.6414,5.652,5.6512,5.6619,5.6697,5.6737,5.6834,5.688,5.6991,5.6946,5.6987,5.707,5.7122,5.7232,5.7109,5.7252,5.7257,5.7228,5.7448,5.7473,5.7651,5.7379,5.7384,5.7387,0,5.6221,5.6314,5.6516,5.6608,5.6653,5.6749,5.6857,5.6949,5.7038,5.7062,5.7138,5.7143,5.7273,5.72,5.738,5.7296,5.7356,5.7391,5.7399,5.7414,5.7331,5.747,5.7709,5.7736,5.7427,5.7424,5.7421,0,5.6351,5.6527,5.6671,5.6718,5.6828,5.6896,5.6946,5.703,5.7098,5.7193,5.7238,5.7348,5.7408,5.7494,5.753,5.7474,5.7709,5.7639,5.7734,5.7734,5.7785,5.7781,5.8037,5.7822,5.7822,5.7822,5.7821,0,5.6551,5.6676,5.6731,5.682,5.696,5.6988,5.7127,5.7174,5.7249,5.7348,5.7349,5.7443,5.7484,5.7586,5.7615,5.7761,5.7788,5.7813,5.7819,5.7813,5.781,5.7854,5.7843,5.7829,5.7827,5.7826,5.7824,0,5.6721,5.6762,5.6919,5.701,5.7036,5.7136,5.7215,5.7302,5.7341,5.7467,5.7499,5.7561,5.7681,5.7725,5.7871,5.7891,5.806,5.8056,5.8029,5.8031,5.8124,5.8115,5.8418,5.846,5.8216,5.8218,5.822,0,5.6846,5.6941,5.7042,5.7108,5.7159,5.7265,5.7334,5.7366,5.7438,5.7547,5.7622,5.774,5.7836,5.8028,5.8087,5.8199,5.8199,5.8297,5.8216,5.8207,5.8202,5.8196,5.8207,5.8313,5.8315,5.8317,5.8319,0,5.7064,5.708,5.7178,5.7284,5.7366,5.7451,5.7534,5.7589,5.7634,5.7715,5.7836,5.791,5.8058,5.8177,5.8292,5.8345,5.8341,5.8344,5.8372,5.8367,5.8349,5.8361,5.8071,5.8337,5.8335,5.8334,5.8333,5.8332,5.7217,5.7301,5.7386,5.7495,5.7561,5.7638,5.7725,5.7774,5.7875,5.7996,5.801,5.814,5.8228,5.8382,5.844,5.8545,5.8518,5.8559,5.8569,5.8579,5.8587,5.8331,5.8566,5.8565,5.8565,5.8564,5.8564,0,5.7436,5.749,5.759,5.7705,5.7792,5.7778,5.7869,5.7944,5.8057,5.8139,5.8233,5.8373,5.8487,5.8556,5.8672,5.8742,5.8743,5.8772,5.8767,5.878,5.8603,5.8567,5.8769,5.8769,5.8769,5.8769,5.8769,5.8769,5.7561,5.7704,5.773,5.7906,5.7959,5.8085,5.8139,5.8211,5.8276,5.8431,5.8526,5.8569,5.8646,5.8768,5.8873,5.889,5.8934,5.8965,5.898,5.8814,5.8792,5.8772,5.8739,5.8974,5.8974,5.9149,5.9151,5.9152]}]]